Regional Weather Roundup
Issued by NWS New Orleans/Baton Rouge, LA

Home | Current Version | Previous Version | Graphics & Text | Print | Product List | Glossary On
Versions: 1 2 3 4 5 6 7 8 9 10 11 12 13 14 15 16 17 18 19 20 21 22 23 24 25 26 27 28 29 30 31 32 33 34 35 36 37 38 39 40 41 42 43 44 45 46 47 48 49 50
986
ASUS44 KLIX 302305
RWRLIX
NEW ORLEANS REGIONAL WEATHER ROUNDUP
NATIONAL WEATHER SERVICE NEW ORLEANS LA
600 PM CDT SAT AUG 30 2014

NOTE: "FAIR" INDICATES FEW OR NO CLOUDS BELOW 12,000 FEET WITH NO
      SIGNIFICANT WEATHER AND/OR OBSTRUCTIONS TO VISIBILITY.
      SKY/WX - SKY CONDITION AND SIGNIFICANT WEATHER.
      TMP - AIR TEMPERATURE.     DP    - DEWPOINT TEMPERATURE.
      RH  - RELATIVE HUMIDITY.   PRES  - PRESSURE.
      HI  - HEAT INDEX.          WCI   - WIND CHILL INDEX.

*  THESE STATIONS ARE NOT NWS OR FAA STATIONS AND ARE NOT UNDER
   NWS QUALITY CONTROL.

LAZ038-040-048-061>063-065>067-069-310000-
SOUTHEAST LOUISIANA

CITY           SKY/WX    TMP DP  RH WIND       PRES   REMARKS
N.O. AUDUBON     N/A     82  74  77 MISG        N/A
N.O. INTL ARPT CLOUDY    81  74  79 E6        30.02R
N.O. LAKEFRONT PTSUNNY   80  72  76 S5        30.03R
N.O. DOWNTOWN*   N/A     93  70  46 CALM      30.03R HX  99
SLIDELL        CLOUDY    77  72  84 CALM      30.03R
BATON ROUGE    LGT RAIN  75  74  96 S7        30.02S FOG
BOOTHVILLE     CLOUDY    86  79  79 S9        30.02R HX  99
BELLE CHASSE   CLOUDY    82  73  74 CALM      30.01R
BOGALUSA*        N/A     78  72  82 S5        30.05S
GALLIANO*      NOT AVBL
NEW ROADS*     LGT RAIN  75  74  96 S7        30.02S
GONZALES*      CLOUDY    74  74 100 CALM      30.02F
HAMMOND*       NOT AVBL
HOUMA*         MOSUNNY   82  75  78 SE3       30.02R
PORT FOURCHON* CLEAR     88  77  70 S10G16    30.03R HX 100

$$

MSZ070-080>082-310000-
SOUTHERN MISSISSIPPI

CITY           SKY/WX    TMP DP  RH WIND       PRES   REMARKS
MCCOMB         LGT RAIN  75  73  93 S7        30.02S
GULFPORT       CLOUDY    77  72  84 E3        30.02F
BILOXI         CLOUDY    76  73  91 NE5       30.03F
PASCAGOULA     CLOUDY    85  77  77 SW8       30.04R HX  95
STENNIS ARPT*  MOSUNNY  N/A N/A N/A CALM      30.04R

$$

COASTAL OBSERVATIONS
LAKE AND NEARSHORE STATIONS

STATION/POSITION TIME  TEMP    WIND        PRES    WAVE
                       AIR SEA DIR/SP/G            HT/PER
                 (UTC) (F)     (DEG/KT/KT) (MB)    (FT/S)
PASCAGOULA       2200   87     180/ 10/ 12 1016.6
WAVELAND YACHT   2200   77     170/  2/  3 1016.1
GRAND ISLE       2200   86 84  180/  5/  9 1016.9
SOUTHWEST PASS   2200   86 90  180/ 11/ 13 1016.7
NEW CANAL        2200   79 80  140/  1/  2 1017.0
SHELL BEACH      2200   80 81  180/  3/  4 1016.4

OFFSHORE STATIONS

STATION/POSITION TIME  TEMP    WIND        PRES    WAVE
                       AIR SEA DIR/SP/G            HT/PER
                 (UTC) (F)     (DEG/KT/KT) (MB)    (FT/S)

$$




USA.gov is the U.S. government's official web portal to all federal, state and local government web resources and services.